Stations météo

réclame
Mon MeteoGroup
Boulogne, France (7002): Température de l'air & dewpoint: 29.07.2020 18:00:00 - 04.08.2020 18:00:00 (CEST)Boulogne, France (7002): Vitesse du vent & gusts: 29.07.2020 18:00:00 - 04.08.2020 18:00:00 (CEST)Boulogne, France (7002): Direction du vent: 29.07.2020 18:00:00 - 04.08.2020 18:00:00 (CEST)Boulogne, France (7002): reduced air pressure: 29.07.2020 18:00:00 - 04.08.2020 18:00:00 (CEST)Boulogne, France (7002): visibility: 29.07.2020 18:00:00 - 04.08.2020 18:00:00 (CEST)Boulogne, France (7002): Quantités de précipitations: 29.07.2020 18:00:00 - 04.08.2020 18:00:00 (CEST)
Date & Time tt [°C] td [°C] ff [km/h] ff [knt] fx [km/h] fx [knt] dd ppp [hPa] vv [km] rr [mm]
04.08.2020 18:00:00 17,2 10,8 23 12 35 19 SW 1017,4 - 0,0
04.08.2020 17:00:00 18,4 10,7 21 12 37 20 WSW 1017,5 20 0,0
04.08.2020 16:00:00 18,5 11,3 24 13 37 20 WSW 1017,8 - 0,0
04.08.2020 15:00:00 18,6 14,3 24 13 37 20 WSW 1018,2 - 0,0
04.08.2020 14:00:00 18,0 14,9 24 13 37 20 SW 1018,1 - 0,0
04.08.2020 13:00:00 19,0 13,6 24 13 41 22 SSW 1017,9 - 0,0
04.08.2020 12:00:00 19,3 12,1 20 11 33 18 SSW 1017,8 - 0,0
04.08.2020 11:00:00 19,6 10,6 14 8 29 16 SSE 1018,0 12 0,0
04.08.2020 10:00:00 17,9 11,0 14 7 30 16 SE 1018,2 - 0,0
04.08.2020 09:00:00 15,7 12,1 14 8 25 14 SE 1018,0 - 0,0
04.08.2020 08:00:00 14,1 11,4 12 6 17 9 ESE 1017,6 - 0,0
04.08.2020 07:00:00 12,2 10,6 10 5 14 8 SE 1017,5 - 0,0
04.08.2020 06:00:00 12,6 10,5 4 2 23 12 S 1017,4 - 0,0
04.08.2020 05:00:00 14,5 11,5 14 7 24 13 E 1017,1 - 0,0
04.08.2020 04:00:00 14,6 11,2 17 9 24 13 ENE 1017,3 - 0,0
04.08.2020 03:00:00 14,5 10,9 16 8 23 12 ENE 1017,4 - 0,0
04.08.2020 02:00:00 14,7 11,5 14 8 21 11 ENE 1017,6 15 0,0
04.08.2020 01:00:00 14,9 11,5 13 7 21 11 ENE 1017,5 - 0,0
04.08.2020 00:00:00 15,4 11,6 13 7 20 11 ENE 1017,4 - 0,0
03.08.2020 23:00:00 16,2 11,6 11 6 16 9 ENE 1017,2 22 0,0
03.08.2020 22:00:00 16,4 10,3 7 4 13 7 NE 1016,8 - 0,0
03.08.2020 21:00:00 16,9 11,6 7 4 14 8 WSW 1016,2 - 0,0
03.08.2020 20:00:00 17,6 11,6 6 4 14 8 W 1015,8 - 0,0
03.08.2020 19:00:00 17,0 11,5 10 5 25 14 NW 1015,8 - 0,0
03.08.2020 18:00:00 17,6 10,2 15 8 37 20 NW 1015,6 - 0,0
03.08.2020 17:00:00 20,3 9,2 8 4 29 16 N 1015,1 18 0,0
03.08.2020 16:00:00 19,8 9,4 13 7 30 16 NNE 1015,3 - 0,0
03.08.2020 15:00:00 19,0 10,0 17 9 35 19 N 1015,6 - 0,0
03.08.2020 14:00:00 18,8 12,5 22 12 39 21 NNW 1015,2 18 0,0
03.08.2020 13:00:00 17,9 12,1 21 11 40 22 NNW 1015,1 - 0,0
03.08.2020 12:00:00 17,3 12,6 19 10 31 17 N 1015,0 - 0,0
03.08.2020 11:00:00 17,2 13,9 18 10 29 16 NNW 1014,8 18 0,0
03.08.2020 10:00:00 17,6 14,5 13 7 21 11 NW 1014,7 - 0,0
03.08.2020 09:00:00 16,6 14,6 12 7 19 11 W 1014,5 - 0,0
03.08.2020 08:00:00 16,3 14,7 7 4 19 10 WSW 1014,2 - 0,0
03.08.2020 07:00:00 16,1 14,6 14 8 26 14 WSW 1014,4 - 0,0
03.08.2020 06:00:00 16,1 14,8 13 7 24 13 WSW 1014,5 - 0,0
03.08.2020 05:00:00 16,0 14,5 12 7 29 15 WSW 1014,6 10 0,0
03.08.2020 04:00:00 16,1 14,6 18 10 29 15 WSW 1015,0 - 0,0
03.08.2020 03:00:00 16,0 14,2 18 10 29 16 WSW 1015,6 - 0,0
03.08.2020 02:00:00 16,2 14,2 20 11 29 16 WSW 1016,0 10 0,0
03.08.2020 01:00:00 16,4 14,2 18 10 27 15 WSW 1016,2 - 0,0
03.08.2020 00:00:00 16,3 14,3 16 9 32 17 SW 1016,6 - 0,0
02.08.2020 23:00:00 16,4 14,1 19 11 31 17 WSW 1016,9 10 0,0
02.08.2020 22:00:00 16,3 13,8 19 10 32 18 SW 1017,1 - 0,0
02.08.2020 21:00:00 16,5 13,4 20 11 35 19 WSW 1017,0 - 0,0
02.08.2020 20:00:00 17,3 13,4 22 12 42 23 WSW 1016,9 - 0,0
02.08.2020 19:00:00 18,1 13,2 26 14 44 24 WSW 1016,8 - 0,0
02.08.2020 18:00:00 18,1 13,4 26 14 43 23 WSW 1017,0 - 0,0
02.08.2020 17:00:00 18,1 13,6 28 15 42 23 SW 1017,4 15 0,0
02.08.2020 16:00:00 18,5 13,4 24 13 42 23 WSW 1017,7 - 0,0
02.08.2020 15:00:00 18,2 12,6 26 14 42 23 WSW 1017,9 - 0,0
02.08.2020 14:00:00 17,9 12,1 23 12 36 19 WSW 1018,2 20 0,0
02.08.2020 13:00:00 17,5 11,1 21 11 35 19 W 1018,5 - 0,0
02.08.2020 12:00:00 16,6 11,9 19 11 27 15 W 1018,4 - 0,0
02.08.2020 11:00:00 16,3 12,1 14 7 28 15 W 1018,2 20 0,0
02.08.2020 10:00:00 15,6 12,0 16 8 24 13 W 1018,0 - 0,0
02.08.2020 09:00:00 15,3 11,9 15 8 29 16 W 1017,7 - 0,0
02.08.2020 08:00:00 15,7 12,1 16 8 28 15 WNW 1017,5 20 0,0
02.08.2020 07:00:00 15,4 12,0 17 9 32 17 W 1017,3 - 0,0
02.08.2020 06:00:00 15,8 12,4 20 11 35 19 W 1016,9 - 0,0
02.08.2020 05:00:00 16,6 12,9 24 13 40 21 W 1016,6 12 0,0
02.08.2020 04:00:00 17,1 13,8 24 13 39 21 W 1016,2 - 0,0
02.08.2020 03:00:00 16,9 15,6 19 11 36 20 W 1016,1 - 0,0
02.08.2020 02:00:00 16,5 15,2 23 12 37 20 WSW 1016,5 12 0,0
02.08.2020 01:00:00 16,7 15,1 21 12 33 18 SW 1016,9 - 0,0
02.08.2020 00:00:00 16,6 15,1 17 9 30 16 SW 1017,3 - 0,0
01.08.2020 23:00:00 16,8 15,1 21 11 36 19 SW 1017,0 10 0,0
01.08.2020 22:00:00 17,1 15,8 16 9 31 17 SW 1017,0 - 0,0
01.08.2020 21:00:00 17,3 15,6 19 10 36 19 SW 1016,8 - 0,0
01.08.2020 20:00:00 17,8 15,6 27 15 39 21 SW 1017,0 10 0,0
01.08.2020 19:00:00 18,7 16,1 25 14 43 23 SW 1017,0 - 0,0
01.08.2020 18:00:00 19,1 15,8 25 14 42 23 WSW 1017,4 - 0,0
01.08.2020 17:00:00 19,0 15,3 29 16 45 25 SW 1017,3 10 0,0
01.08.2020 16:00:00 19,1 15,0 30 16 45 24 WSW 1017,3 - 0,0
01.08.2020 15:00:00 19,1 15,0 29 16 42 23 SW 1017,5 - 0,0
01.08.2020 14:00:00 18,6 15,7 28 15 44 24 SW 1017,5 12 0,0
01.08.2020 13:00:00 18,4 15,8 25 14 42 23 WSW 1017,5 - 0,0
01.08.2020 12:00:00 18,7 15,9 22 12 37 20 WSW 1017,0 - 0,0
01.08.2020 11:00:00 18,4 15,3 23 12 36 20 W 1016,5 20 0,0
01.08.2020 10:00:00 18,1 16,4 19 10 37 20 W 1016,0 - 0,0
01.08.2020 09:00:00 17,5 17,0 15 8 33 18 WSW 1015,7 - 0,0
01.08.2020 08:00:00 16,8 16,3 23 12 35 19 SW 1015,7 4,5 0,0
01.08.2020 07:00:00 16,6 16,1 19 11 34 19 WSW 1015,6 - 0,0
01.08.2020 06:00:00 16,4 16,2 23 12 35 19 SW 1015,1 - 0,0
01.08.2020 05:00:00 17,0 17,0 21 11 39 21 SW 1014,8 2,5 0,0
01.08.2020 04:00:00 17,2 17,2 27 15 40 22 SW 1014,8 - 0,0
01.08.2020 03:00:00 17,1 16,9 18 10 36 19 SW 1014,5 - 0,0
01.08.2020 02:00:00 17,0 16,8 24 13 39 21 SW 1014,5 0,1 0,0
01.08.2020 01:00:00 17,0 16,7 28 15 40 21 SW 1014,5 - 0,0
01.08.2020 00:00:00 17,4 16,4 24 13 40 21 SW 1014,3 - 0,0
31.07.2020 23:00:00 18,0 16,2 17 9 39 21 SSW 1013,7 12 0,0
31.07.2020 22:00:00 18,6 16,0 20 11 36 19 SSW 1013,2 - 0,0
31.07.2020 21:00:00 19,6 15,0 18 10 27 15 SW 1012,5 - 0,0
31.07.2020 20:00:00 20,8 14,9 14 8 34 19 SW 1012,0 15 0,0
31.07.2020 19:00:00 22,9 15,2 21 12 56 30 WSW 1011,8 - 0,0
31.07.2020 18:00:00 27,5 16,5 39 21 67 36 SW 1010,6 - 0,0
31.07.2020 17:00:00 37,3 15,7 18 10 40 21 SSE 1009,8 16 0,0
31.07.2020 16:00:00 36,4 15,0 17 9 37 20 SE 1010,3 - 0,0
31.07.2020 15:00:00 35,1 14,4 19 10 37 20 SE 1010,6 - 0,0
31.07.2020 14:00:00 34,3 13,7 20 11 38 20 SE 1011,3 - 0,0
31.07.2020 13:00:00 32,9 14,0 16 9 29 16 ESE 1011,7 - 0,0
31.07.2020 12:00:00 31,5 13,3 15 8 25 14 ESE 1011,9 - 0,0
31.07.2020 11:00:00 29,1 11,6 16 9 35 19 SE 1012,7 20 0,0
31.07.2020 10:00:00 27,2 10,4 19 10 31 17 SE 1013,1 - 0,0
31.07.2020 09:00:00 25,7 9,5 18 10 31 17 ESE 1013,2 - 0,0
31.07.2020 08:00:00 23,5 9,8 15 8 27 14 ESE 1013,5 - 0,0
31.07.2020 07:00:00 21,8 9,3 15 8 27 15 ESE 1013,8 - 0,0
31.07.2020 06:00:00 21,7 9,9 14 8 30 16 ESE 1014,0 - 0,0
31.07.2020 05:00:00 22,9 10,0 19 10 31 17 ESE 1014,4 - 0,0
31.07.2020 04:00:00 22,8 10,2 20 11 40 22 ESE 1015,2 - 0,0
31.07.2020 03:00:00 22,3 11,1 19 10 36 19 ESE 1015,7 - 0,0
31.07.2020 02:00:00 22,1 11,8 18 10 40 22 E 1015,9 20 0,0
31.07.2020 01:00:00 22,0 12,0 16 8 30 16 E 1016,1 - 0,0
31.07.2020 00:00:00 21,1 13,5 14 8 36 20 E 1016,3 - 0,0
30.07.2020 23:00:00 20,3 13,3 18 10 37 20 ENE 1016,4 - 0,0
30.07.2020 22:00:00 20,6 12,8 26 14 36 19 ENE 1016,4 - 0,0
30.07.2020 21:00:00 22,4 13,2 17 9 35 19 ENE 1016,3 - 0,0
30.07.2020 20:00:00 24,4 13,6 14 7 28 15 NE 1016,2 - 0,0
30.07.2020 19:00:00 25,3 13,2 13 7 26 14 NNE 1016,7 - 0,0
30.07.2020 18:00:00 24,0 12,3 12 7 18 10 NNW 1017,5 - 0,0
30.07.2020 17:00:00 23,9 9,1 11 6 20 11 N 1018,1 - 0,0
30.07.2020 16:00:00 22,7 12,3 10 5 17 9 NNW 1018,8 - 0,0
30.07.2020 15:00:00 21,2 14,1 10 5 16 9 NNW 1019,1 - 0,0
30.07.2020 14:00:00 20,3 13,3 8 4 16 8 NW 1019,6 - 0,0
30.07.2020 13:00:00 19,5 13,7 8 4 14 7 NW 1020,1 - 0,0
30.07.2020 12:00:00 18,6 11,9 7 4 13 7 NW 1020,2 - 0,0
30.07.2020 11:00:00 18,0 11,5 8 4 13 7 W 1020,4 25 0,0
30.07.2020 10:00:00 19,1 11,1 7 4 14 7 SSE 1020,2 - 0,0
30.07.2020 09:00:00 17,9 10,5 4 2 8 5 ESE 1020,3 - 0,0
30.07.2020 08:00:00 15,2 10,8 8 4 9 5 ESE 1020,3 - 0,0
30.07.2020 07:00:00 13,8 10,4 6 3 8 4 SE 1020,5 - 0,0
30.07.2020 06:00:00 13,2 10,0 6 3 13 7 ESE 1020,3 - 0,0
30.07.2020 05:00:00 12,7 10,2 10 5 15 8 ESE 1020,2 20 0,0
30.07.2020 04:00:00 12,7 10,2 9 5 13 7 SE 1020,3 - 0,0
30.07.2020 03:00:00 12,7 9,9 6 4 11 6 SE 1020,7 - 0,0
30.07.2020 02:00:00 13,3 10,1 4 2 8 5 SSE 1020,8 20 0,0
30.07.2020 01:00:00 13,9 10,1 5 3 8 5 SE 1020,9 - 0,0
30.07.2020 00:00:00 15,1 10,3 4 2 14 8 S 1020,8 - 0,0
29.07.2020 23:00:00 15,5 10,3 9 5 14 8 WSW 1020,9 25 0,0
29.07.2020 22:00:00 15,6 9,5 7 4 13 7 WSW 1020,6 - 0,0
29.07.2020 21:00:00 16,1 9,7 9 5 17 9 WSW 1020,6 - 0,0
29.07.2020 20:00:00 16,8 9,7 11 6 24 13 SW 1020,6 25 0,0
29.07.2020 19:00:00 17,9 10,5 13 7 24 13 WSW 1020,8 - 0,0
29.07.2020 18:00:00 18,0 10,4 15 8 25 14 SW 1021,2 - 0,0

tt = Température de l'air
td = dewpoint
ff = Vitesse du vent
fx = gusts
dd = Direction du vent
ppp = reduced air pressure
vv = visibility
rr = Quantités de précipitations

stations d'obs. à proximité